Location: Rostock
(54.0884°N, 12.1234°E)
Time: 18:24:29
(UTC+02:00)

ISS - Pass Details

Date: 10 January 2018
Orbit: 401 x 409 km, 51.6° (Epoch: 22 August)

Event Time Altitude Azimuth Distance (km) Brightness Sun altitude
Exits shadow 05:05:26 18° 114° (ESE) 1,113 -1.0 -28.3°
Drops below altitude 10° 05:06:27 10° 109° (ESE) 1,512 -0.1 -28.2°
Sets 05:08:35 0° 105° (ESE) 2,380 1.2 -27.9°
